Moses Lake, WA
on Sunday, December 30, 2012

Sunday
Previous Day Next Day
Daily Summary
 ActualAverageRecord
Temperature
Mean Temperature °F 28°F  
Max Temperature 28°F 34°F 53°F (1998)
Min Temperature 16°F 22°F 9°F (2010)
Degree Days
Heating Degree Days 43 37  
Month to date heating degree days 902 1086  
Since 1 July heating degree days 2170 2547  
Cooling Degree Days 0 0  
Month to date cooling degree days 0 0  
Year to date cooling degree days 719 615  
Moisture
Dew Point 21°F   
Average Humidity 87    
Maximum Humidity 96    
Minimum Humidity 78    
Precipitation
Precipitation T in 0.05 in 0.55 in (2002)
Month to date precipitation 1.87 1.38  
Year to date precipitation 9.61 9.05  
Wind
Wind Speed 2 mph   
Max Wind Speed 10 mph   
Max Gust Speed 12 mph   
Visibility 4 miles   
Events Fog , Snow   

Key: T is trace of precipitation, MM is missing value
Source: NWS Daily Summary
Time(PST)TemperatureDew PointHumidity Pressure Visibility Wind DirectionWind SpeedGust SpeedPrecipitationEvents Conditions
12:52 AM 24.1°F 19.9°F 84% 30.29 in 10.0 miles Calm Calm - N/A   Overcast
1:52 AM 25.0°F 21.9°F 88% 30.30 in 10.0 miles Calm Calm - N/A   Overcast
2:52 AM 24.1°F 21.0°F 88% 30.31 in 10.0 miles Calm Calm - N/A   Overcast
3:52 AM 25.0°F 21.0°F 85% 30.31 in 10.0 miles Calm Calm - N/A   Overcast
4:52 AM 23.0°F 21.2°F 93% 30.27 in 10.0 miles Calm Calm - N/A   Overcast
5:49 AM 21.2°F 17.6°F 86% 30.27 in 2.5 miles Calm Calm - N/A   Haze
5:52 AM 21.9°F 18.0°F 85% 30.32 in 2.0 miles Calm Calm - N/A   Partly Cloudy
5:59 AM 21.2°F 17.6°F 86% 30.28 in 1.5 miles Calm Calm - N/A   Clear
6:05 AM 21.2°F 17.6°F 86% 30.28 in 3.0 miles Calm Calm - N/A   Partly Cloudy
6:17 AM 19.4°F 15.8°F 86% 30.28 in 2.5 miles Calm Calm - N/A   Scattered Clouds
6:21 AM 17.6°F 15.8°F 93% 30.28 in 0.8 miles Calm Calm - N/A   Mostly Cloudy
6:36 AM 17.6°F 12.2°F 79% 30.28 in 0.2 miles Calm Calm - N/A Fog Light Freezing Fog
6:52 AM 16.0°F 12.9°F 88% 30.35 in 0.8 miles Calm Calm - N/A   Mist
7:35 AM 17.6°F 12.2°F 79% 30.28 in 0.2 miles Calm Calm - N/A   Haze
7:52 AM 17.1°F 15.1°F 92% 30.34 in 0.2 miles North 3.5 mph - N/A Fog Light Freezing Fog
8:52 AM 19.9°F 17.1°F 89% 30.37 in 0.2 miles Calm Calm - N/A Fog Light Freezing Fog
9:52 AM 25.0°F 21.9°F 88% 30.38 in 0.2 miles Calm Calm - N/A Fog Light Freezing Fog
10:38 AM 26.6°F 23.0°F 86% 30.32 in 0.2 miles Calm Calm - N/A Fog Light Freezing Fog
10:52 AM 27.0°F 24.1°F 89% 30.39 in 0.2 miles Calm Calm - N/A Fog Light Freezing Fog
11:52 AM 27.0°F 25.0°F 92% 30.37 in 0.2 miles Calm Calm - N/A Fog Light Freezing Fog
12:37 PM 28.4°F 23.0°F 80% 30.31 in 0.8 miles NNE 4.6 mph - 0.00 in Snow Light Snow
12:44 PM 28.4°F 23.0°F 80% 30.32 in 1.5 miles NNE 5.8 mph - 0.00 in Snow Light Snow
12:52 PM 27.0°F 23.0°F 85% 30.37 in 1.5 miles North 4.6 mph - 0.00 in   Overcast
1:05 PM 28.4°F 24.8°F 86% 30.32 in 0.8 miles Calm Calm - 0.00 in Snow Light Snow
1:14 PM 28.4°F 24.8°F 86% 30.31 in 1.0 miles Calm Calm - 0.00 in Snow Light Snow
1:21 PM 28.4°F 24.8°F 86% 30.31 in 0.5 miles Calm Calm - 0.00 in Fog , Snow Light Snow
1:31 PM 28.4°F 23.0°F 80% 30.31 in 2.0 miles Calm Calm - 0.00 in   Haze
1:40 PM 28.4°F 24.8°F 86% 30.31 in 3.0 miles Calm Calm - 0.00 in   Overcast
1:52 PM 28.0°F 24.1°F 85% 30.35 in 3.0 miles Calm Calm - 0.00 in   Overcast
2:52 PM 28.0°F 23.0°F 81% 30.37 in 7.0 miles Calm Calm - N/A   Overcast
3:52 PM 27.0°F 23.0°F 85% 30.37 in 4.0 miles Calm Calm - N/A   Overcast
4:52 PM 27.0°F 23.0°F 85% 30.38 in 7.0 miles NNW 3.5 mph - N/A   Overcast
5:52 PM 26.1°F 21.9°F 84% 30.38 in 7.0 miles North 5.8 mph - N/A   Overcast
6:52 PM 27.0°F 23.0°F 85% 30.39 in 7.0 miles North 5.8 mph - N/A   Overcast
6:59 PM 26.6°F 23.0°F 86% 30.33 in 7.0 miles North 5.8 mph - N/A   Overcast
7:29 PM 26.6°F 23.0°F 86% 30.33 in 7.0 miles North 6.9 mph - N/A   Overcast
7:52 PM 26.1°F 23.0°F 88% 30.38 in 7.0 miles North 6.9 mph - N/A   Overcast
8:20 PM 26.6°F 23.0°F 86% 30.32 in 6.0 miles North 8.1 mph - N/A   Overcast
8:39 PM 26.6°F 23.0°F 86% 30.32 in 6.0 miles NNW 6.9 mph - N/A   Overcast
8:49 PM 26.6°F 23.0°F 86% 30.33 in 6.0 miles NNW 5.8 mph - N/A   Overcast
8:52 PM 26.1°F 23.0°F 88% 30.38 in 6.0 miles NNW 6.9 mph - N/A   Overcast
9:17 PM 24.8°F 21.2°F 86% 30.33 in 5.0 miles NNW 9.2 mph - N/A   Overcast
9:52 PM 25.0°F 21.9°F 88% 30.38 in 6.0 miles NNW 8.1 mph - N/A   Overcast
10:52 PM 26.1°F 23.0°F 88% 30.39 in 7.0 miles North 6.9 mph - N/A   Overcast
11:14 PM 26.6°F 23.0°F 86% 30.34 in 7.0 miles North 5.8 mph - N/A   Overcast
11:52 PM 26.1°F 23.0°F 88% 30.38 in 9.0 miles North 4.6 mph - N/A   Overcast
Moon Phase
Dec. 30 Jan. 04 Jan. 11 Jan. 18 Jan. 26
Sunrise:07:43 AM (PST) Moon Rise:07:03 PM (PST)12/30
Sunset:04:16 PM (PST) Moon Set:08:45 AM (PST)12/30

Copyright © 2014 The Weather Underground, Inc.